This is the latest recevied weather packets stored in our database for station/object TF3VP. If no packets are shown the sender has not sent any weather packets the latest 10 day(s).
| Time | Temp. | Humidity | Pressure | Rain* | Wind** | Luminosity | Snow |
|---|---|---|---|---|---|---|---|
| 1778256196 | 5.56° C | 52% | 1023.3 hPa | 0 mm | - | 160 W/m² | - |
| 1778255892 | 5° C | 50% | 1023.3 hPa | 0 mm | - | 239 W/m² | - |
| 1778255589 | 5° C | 51% | 1023.3 hPa | 0 mm | - | 270 W/m² | - |
| 1778255286 | 5° C | 51% | 1022.9 hPa | 0 mm | - | 206 W/m² | - |
| 1778254984 | 5° C | 51% | 1023.3 hPa | 0 mm | - | 164 W/m² | - |
| 1778254679 | 5.56° C | 51% | 1023.3 hPa | 0 mm | - | 157 W/m² | - |
| 1778254377 | 5.56° C | 50% | 1023.3 hPa | 0 mm | - | 150 W/m² | - |
| 1778254073 | 5.56° C | 50% | 1023.3 hPa | 0 mm | - | 161 W/m² | - |
| 1778253770 | 5.56° C | 47% | 1023.3 hPa | 0 mm | - | 174 W/m² | - |
| 1778253466 | 6.11° C | 47% | 1023.3 hPa | 0 mm | - | 200 W/m² | - |
| 1778253163 | 6.11° C | 46% | 1023.3 hPa | 0 mm | - | 407 W/m² | - |
| 1778252859 | 6.11° C | 47% | 1023.3 hPa | 0 mm | - | 168 W/m² | - |
| 1778252556 | 6.11° C | 46% | 1023.3 hPa | 0 mm | - | 278 W/m² | - |
| 1778252252 | 6.11° C | 45% | 1022.9 hPa | 0 mm | - | 371 W/m² | - |
| 1778251948 | 6.11° C | 44% | 1022.9 hPa | 0 mm | - | 357 W/m² | - |
| 1778251645 | 6.11° C | 44% | 1022.9 hPa | 0 mm | - | 349 W/m² | - |
| 1778251344 | 5.56° C | 45% | 1022.9 hPa | 0 mm | - | 351 W/m² | - |
| 1778251041 | 5.56° C | 45% | 1022.9 hPa | 0 mm | - | 281 W/m² | - |
| 1778250738 | 5.56° C | 45% | 1023.3 hPa | 0 mm | - | 297 W/m² | - |
| 1778250434 | 5.56° C | 44% | 1023.3 hPa | 0 mm | - | 340 W/m² | - |
| 1778250131 | 5.56° C | 44% | 1023.3 hPa | 0 mm | - | 343 W/m² | - |
| 1778249827 | 6.11° C | 46% | 1023.3 hPa | 0 mm | - | 360 W/m² | - |
| 1778249525 | 6.11° C | 45% | 1022.9 hPa | 0 mm | - | 193 W/m² | - |
| 1778249222 | 6.11° C | 45% | 1023.3 hPa | 0 mm | - | 278 W/m² | - |
| 1778248919 | 6.11° C | 45% | 1022.9 hPa | 0 mm | - | 247 W/m² | - |
* Rain latest hour (hover to see other rain measurements)
** Current wind speed in m/s (hover to see current wind gust speed)